Limon, CO

4:45 AM MDT on April 21, 2018 (GMT -0600)
Limon Municipal

Weather History for KLIC - October, 2012

Change the Weather History Date:

Friday, October 12, 2012

  Actual Average Record
Temperature  
Mean Temperature 47 °F -  
Max Temperature 65 °F - 84 °F (1999)
Min Temperature 29 °F - 17 °F (2001)
Degree Days  
Heating Degree Days 18    
Month to date heating degree days 242  
Cooling Degree Days 0    
Month to date cooling degree days 0  
Moisture  
Dew Point 34 °F    
Average Humidity 72    
Maximum Humidity 96    
Minimum Humidity 41    
Precipitation  
Precipitation 0.02 in - 0.25 in (2008)
Month to date precipitation 0.11  
Year to date precipitation 8.76  
Sea Level Pressure  
Sea Level Pressure 30.04 in    
Wind  
Wind Speed 9 mph (SSE)    
Max Wind Speed 23 mph    
Max Gust Speed 31 mph    
Visibility 10 miles    
Events Rain , Thunderstorm    
T = Trace of Precipitation, MM = Missing Value Source: NWS Daily Summary

Daily Weather History Graph

Daily Weather History Graph

Search for Another Location

Airport or City:

Astronomy

Oct. 12, 2012 Rise Set
Actual Time 7:01 AM MDT 6:19 PM MDT
Civil Twilight 6:35 AM MDT 6:46 PM MDT
Nautical Twilight 6:03 AM MDT 7:17 PM MDT
Astronomical Twilight 5:32 AM MDT 7:48 PM MDT
Moon 3:48 AM MDT (10/12) 4:29 PM MDT (10/12)
Length of Visible Light 12h 11m
Length of Day
11h 17m
Waning Crescent, 10% of the Moon is Illuminated
Oct 12
Waning Crescent
Oct 15
New
Oct 21
First Quarter
Oct 29
Full
Nov 6
Last Quarter

Hourly Weather History & Observations

Time (MDT) Temp. Windchill Dew Point Humidity Pressure Visibility Wind Dir Wind Speed Gust Speed Precip Events Conditions
12:55 AM 33.1 °F 28.7 °F 28.9 °F 85% 30.18 in 10.0 mi SE 4.6 mph - N/A   Clear
1:55 AM 34.0 °F 28.8 °F 30.0 °F 85% 30.17 in 10.0 mi SSE 5.8 mph - N/A   Clear
2:55 AM 33.1 °F 27.7 °F 28.9 °F 85% 30.16 in 10.0 mi SSE 5.8 mph - N/A   Clear
3:55 AM 33.1 °F 25.5 °F 28.9 °F 85% 30.14 in 10.0 mi South 9.2 mph - N/A   Clear
4:55 AM 30.9 °F 24.3 °F 28.0 °F 89% 30.16 in 10.0 mi South 6.9 mph - N/A   Clear
5:55 AM 30.0 °F 26.5 °F 27.0 °F 88% 30.16 in 10.0 mi SE 3.5 mph - N/A   Clear
6:55 AM 28.9 °F 21.1 °F 27.0 °F 92% 30.19 in 10.0 mi SE 8.1 mph - N/A   Clear
7:55 AM 33.1 °F 26.9 °F 28.9 °F 85% 30.19 in 10.0 mi SSE 6.9 mph - N/A   Clear
8:55 AM 39.9 °F 32.5 °F 30.9 °F 70% 30.15 in 10.0 mi SSE 12.7 mph - N/A   Clear
11:55 AM 50.0 °F - 33.1 °F 52% 30.12 in 10.0 mi South 15.0 mph - N/A   Mostly Cloudy
12:55 PM 52.0 °F - 34.0 °F 50% 30.06 in 10.0 mi South 18.4 mph - N/A   Overcast
1:55 PM 55.0 °F - 35.1 °F 47% 29.99 in 10.0 mi South 13.8 mph - N/A   Scattered Clouds
2:55 PM 60.1 °F - 36.0 °F 41% 29.91 in 10.0 mi SE 15.0 mph - N/A   Clear
4:55 PM 61.0 °F - 37.0 °F 41% 29.89 in 10.0 mi SSE 18.4 mph 24.2 mph N/A   Scattered Clouds
5:34 PM 57.2 °F - 39.2 °F 51% 30.01 in 10.0 mi SW 12.7 mph - 0.00 in Rain , Thunderstorm Light Rain
5:55 PM 57.0 °F - 37.9 °F 49% 29.94 in 10.0 mi South 13.8 mph - 0.00 in   Mostly Cloudy
6:55 PM 51.1 °F - 43.0 °F 74% 29.91 in 10.0 mi SE 19.6 mph - 0.02 in Rain Light Rain
8:55 PM 46.9 °F - 39.9 °F 77% 29.91 in 10.0 mi SSE 17.3 mph - N/A   Clear
9:55 PM 45.0 °F 43.5 °F 39.9 °F 82% 29.86 in 10.0 mi SSE 3.5 mph - N/A   Clear
10:55 PM 46.9 °F - 41.0 °F 80% 29.84 in 10.0 mi Calm Calm - N/A   Clear
11:55 PM 37.0 °F 34.5 °F 36.0 °F 96% 29.86 in 10.0 mi WNW 3.5 mph - N/A   Clear